• în Republica Moldova
  • Lista ţărilor
  • Pe 7 zile
  • Temperatura apei
  • Hartă satelitară
  • Meteo pe hartă
  • Widget-uri
  • user-avatar
    Intrare

    Meteo pe oră la Lubango

    Astăzi, 22 Septembrie, Vineri

    Timp Temperatura Precipitaţii Vânt Presiune Umiditate
    00:00 +16°C° 0 mm 1 m/s 609 mmHg 67%
    01:00 +15°C° 0 mm 1 m/s 609 mmHg 68%
    02:00 +15°C° 0 mm 1 m/s 609 mmHg 67%
    03:00 +15°C° 0 mm 1 m/s 609 mmHg 67%
    04:00 +15°C° 0 mm 1 m/s 608 mmHg 66%
    05:00 +16°C° 0 mm 1 m/s 609 mmHg 61%
    06:00 +18°C° 0 mm 1 m/s 609 mmHg 56%
    07:00 +19°C° 0 mm 1 m/s 610 mmHg 51%
    08:00 +21°C° 0 mm 2 m/s 611 mmHg 41%
    09:00 +26°C° 0 mm 3 m/s 613 mmHg 31%
    10:00 +29°C° 0 mm 3 m/s 614 mmHg 21%
    11:00 +30°C° 0 mm 3 m/s 614 mmHg 19%
    12:00 +31°C° 0 mm 3 m/s 614 mmHg 18%
    13:00 +33°C° 0 mm 3 m/s 613 mmHg 16%
    14:00 +31°C° 0 mm 3 m/s 612 mmHg 18%
    15:00 +30°C° 0 mm 3 m/s 612 mmHg 20%
    16:00 +29°C° 0 mm 4 m/s 611 mmHg 22%
    17:00 +27°C° 0 mm 3 m/s 611 mmHg 30%
    18:00 +24°C° 0 mm 3 m/s 610 mmHg 39%
    19:00 +20°C° 0 mm 2 m/s 609 mmHg 48%
    20:00 +19°C° 0 mm 2 m/s 609 mmHg 52%
    21:00 +19°C° 0 mm 1 m/s 609 mmHg 55%
    22:00 +18°C° 0 mm 1 m/s 609 mmHg 59%
    23:00 +16°C° 0 mm 1 m/s 609 mmHg 59%

    Mâine, 23 Septembrie, Sâmbătă

    Timp Temperatura Precipitaţii Vânt Presiune Umiditate
    00:00 +16°C° 0 mm 1 m/s 609 mmHg 58%
    01:00 +15°C° 0 mm 0 m/s 608 mmHg 58%
    02:00 +16°C° 0 mm 1 m/s 608 mmHg 57%
    03:00 +16°C° 0 mm 1 m/s 608 mmHg 57%
    04:00 +15°C° 0 mm 1 m/s 608 mmHg 56%
    05:00 +16°C° 0 mm 1 m/s 609 mmHg 53%
    06:00 +18°C° 0 mm 1 m/s 609 mmHg 50%
    07:00 +18°C° 0 mm 1 m/s 610 mmHg 47%
    08:00 +21°C° 0 mm 2 m/s 611 mmHg 39%
    09:00 +25°C° 0 mm 3 m/s 613 mmHg 30%
    10:00 +29°C° 0 mm 4 m/s 614 mmHg 21%
    11:00 +30°C° 0 mm 4 m/s 614 mmHg 20%
    12:00 +33°C° 0 mm 4 m/s 613 mmHg 18%
    13:00 +34°C° 0 mm 4 m/s 613 mmHg 17%
    14:00 +33°C° 0 mm 4 m/s 612 mmHg 19%
    15:00 +32°C° 0 mm 4 m/s 612 mmHg 21%
    16:00 +30°C° 0 mm 3 m/s 611 mmHg 23%
    17:00 +26°C° 0 mm 3 m/s 610 mmHg 34%
    18:00 +23°C° 0 mm 2 m/s 610 mmHg 44%
    19:00 +19°C° 0 mm 2 m/s 609 mmHg 54%
    20:00 +18°C° 0 mm 2 m/s 609 mmHg 59%
    21:00 +18°C° 0 mm 1 m/s 610 mmHg 63%
    22:00 +16°C° 0 mm 1 m/s 610 mmHg 67%
    23:00 +16°C° 0 mm 1 m/s 609 mmHg 68%

    Poimâine, 24 Septembrie, Duminică

    Timp Temperatura Precipitaţii Vânt Presiune Umiditate
    00:00 +15°C° 0 mm 1 m/s 609 mmHg 69%
    01:00 +15°C° 0 mm 1 m/s 609 mmHg 70%
    02:00 +14°C° 0 mm 1 m/s 608 mmHg 71%
    03:00 +14°C° 0 mm 1 m/s 608 mmHg 72%
    04:00 +14°C° 0 mm 1 m/s 608 mmHg 73%
    05:00 +14°C° 0 mm 0 m/s 609 mmHg 68%
    06:00 +15°C° 0 mm 0 m/s 609 mmHg 63%
    07:00 +15°C° 0 mm 0 m/s 610 mmHg 58%
    08:00 +21°C° 0 mm 1 m/s 611 mmHg 48%
    09:00 +24°C° 0 mm 2 m/s 613 mmHg 38%
    10:00 +27°C° 0 mm 2 m/s 614 mmHg 27%
    11:00 +28°C° 0 mm 3 m/s 614 mmHg 25%
    12:00 +30°C° 0 mm 3 m/s 613 mmHg 22%
    13:00 +31°C° 0 mm 3 m/s 613 mmHg 20%
    14:00 +30°C° 0 mm 3 m/s 612 mmHg 22%
    15:00 +30°C° 0 mm 4 m/s 612 mmHg 24%
    16:00 +29°C° 0 mm 4 m/s 611 mmHg 26%
    17:00 +26°C° 0 mm 3 m/s 611 mmHg 38%
    18:00 +22°C° 0 mm 3 m/s 610 mmHg 50%
    19:00 +18°C° 0 mm 3 m/s 609 mmHg 62%
    20:00 +17°C° 0 mm 2 m/s 610 mmHg 67%
    21:00 +16°C° 0 mm 2 m/s 610 mmHg 72%
    22:00 +15°C° 0 mm 1 m/s 610 mmHg 78%
    23:00 +15°C° 0 mm 1 m/s 609 mmHg 79%

    25 Septembrie, Luni

    Timp Temperatura Precipitaţii Vânt Presiune Umiditate
    00:00 +14°C° 0 mm 1 m/s 609 mmHg 81%
    01:00 +14°C° 0 mm 1 m/s 608 mmHg 83%
    02:00 +14°C° 0 mm 1 m/s 608 mmHg 83%
    03:00 +13°C° 0 mm 1 m/s 608 mmHg 84%
    04:00 +13°C° 0 mm 1 m/s 608 mmHg 84%
    05:00 +14°C° 0 mm 1 m/s 608 mmHg 79%
    06:00 +14°C° 0 mm 1 m/s 609 mmHg 75%
    07:00 +15°C° 0 mm 1 m/s 610 mmHg 70%
    08:00 +19°C° 0 mm 1 m/s 611 mmHg 57%
    09:00 +21°C° 0 mm 2 m/s 612 mmHg 44%
    10:00 +25°C° 0 mm 2 m/s 613 mmHg 31%
    11:00 +27°C° 0 mm 2 m/s 613 mmHg 28%
    12:00 +28°C° 0 mm 2 m/s 613 mmHg 26%
    13:00 +30°C° 0 mm 3 m/s 612 mmHg 23%
    14:00 +29°C° 0 mm 3 m/s 612 mmHg 25%
    15:00 +28°C° 0 mm 3 m/s 611 mmHg 28%
    16:00 +28°C° 0 mm 4 m/s 610 mmHg 30%
    17:00 +25°C° 0 mm 3 m/s 610 mmHg 40%
    18:00 +21°C° 0 mm 3 m/s 609 mmHg 50%
    19:00 +18°C° 0 mm 3 m/s 609 mmHg 61%
    20:00 +17°C° 0 mm 2 m/s 609 mmHg 65%
    21:00 +16°C° 0 mm 2 m/s 609 mmHg 70%
    22:00 +15°C° 0 mm 1 m/s 609 mmHg 74%
    23:00 +15°C° 0 mm 1 m/s 608 mmHg 74%

    26 Septembrie, Marţi

    Timp Temperatura Precipitaţii Vânt Presiune Umiditate
    00:00 +15°C° 0 mm 1 m/s 608 mmHg 74%
    01:00 +15°C° 0 mm 1 m/s 608 mmHg 75%
    02:00 +14°C° 0 mm 1 m/s 607 mmHg 76%
    03:00 +13°C° 0 mm 1 m/s 607 mmHg 78%
    04:00 +12°C° 0 mm 0 m/s 607 mmHg 79%
    05:00 +13°C° 0 mm 0 m/s 608 mmHg 73%
    06:00 +14°C° 0 mm 0 m/s 608 mmHg 67%
    07:00 +15°C° 0 mm 0 m/s 609 mmHg 61%
    08:00 +20°C° 0 mm 1 m/s 610 mmHg 50%
    09:00 +23°C° 0 mm 2 m/s 611 mmHg 38%
    10:00 +26°C° 0 mm 2 m/s 612 mmHg 26%
    11:00 +28°C° 0 mm 2 m/s 612 mmHg 24%
    12:00 +29°C° 0 mm 3 m/s 612 mmHg 22%
    13:00 +31°C° 0 mm 3 m/s 612 mmHg 20%
    14:00 +29°C° 0 mm 3 m/s 611 mmHg 23%
    15:00 +28°C° 0 mm 4 m/s 610 mmHg 26%
    16:00 +27°C° 0 mm 4 m/s 609 mmHg 29%
    17:00 +24°C° 0 mm 3 m/s 609 mmHg 39%
    18:00 +21°C° 0 mm 3 m/s 609 mmHg 49%
    19:00 +18°C° 0 mm 2 m/s 608 mmHg 59%
    20:00 +17°C° 0 mm 2 m/s 608 mmHg 64%
    21:00 +16°C° 0 mm 2 m/s 608 mmHg 68%
    22:00 +15°C° 0 mm 1 m/s 608 mmHg 72%
    23:00 +14°C° 0 mm 1 m/s 608 mmHg 74%

    27 Septembrie, Miercuri

    Timp Temperatura Precipitaţii Vânt Presiune Umiditate
    00:00 +14°C° 0 mm 1 m/s 607 mmHg 75%
    01:00 +13°C° 0 mm 1 m/s 607 mmHg 77%
    02:00 +13°C° 0 mm 1 m/s 607 mmHg 77%
    03:00 +12°C° 0 mm 1 m/s 606 mmHg 78%
    04:00 +12°C° 0 mm 1 m/s 606 mmHg 79%
    05:00 +13°C° 0 mm 1 m/s 607 mmHg 73%
    06:00 +14°C° 0 mm 1 m/s 608 mmHg 68%
    07:00 +15°C° 0 mm 1 m/s 609 mmHg 62%
    08:00 +19°C° 0 mm 1 m/s 610 mmHg 50%
    09:00 +23°C° 0 mm 1 m/s 611 mmHg 38%
    10:00 +26°C° 0 mm 1 m/s 613 mmHg 26%
    11:00 +27°C° 0 mm 2 m/s 612 mmHg 24%
    12:00 +29°C° 0 mm 2 m/s 612 mmHg 22%
    13:00 +30°C° 0 mm 3 m/s 612 mmHg 19%
    14:00 +29°C° 0 mm 3 m/s 611 mmHg 22%
    15:00 +28°C° 0 mm 4 m/s 611 mmHg 25%
    16:00 +27°C° 0 mm 4 m/s 610 mmHg 28%
    17:00 +23°C° 0 mm 4 m/s 609 mmHg 38%
    18:00 +21°C° 0 mm 3 m/s 609 mmHg 48%
    19:00 +18°C° 0 mm 2 m/s 608 mmHg 59%
    20:00 +17°C° 0 mm 2 m/s 608 mmHg 64%
    21:00 +16°C° 0 mm 2 m/s 608 mmHg 69%
    22:00 +15°C° 0 mm 1 m/s 608 mmHg 75%
    23:00 +14°C° 0 mm 1 m/s 608 mmHg 76%
    Arată mai mult